Regional Weather Roundup
Issued by NWS

Home | Current Version | Previous Version | Graphics & Text | Print | Product List | Glossary Off
Versions: 1 2 3 4 5 6 7 8 9 10 11 12 13 14 15 16 17 18 19 20 21 22 23 24 25 26 27 28 29 30 31 32 33 34 35 36 37 38 39 40 41 42 43 44 45 46 47 48 49 50

000
ASUS43 KTOP 021459
RWRKS

WEATHER ROUNDUP FOR KANSAS
NATIONAL WEATHER SERVICE GOODLAND KS
900 AM CST FRI DEC 02 2016

NOTE:  "FAIR" INDICATES FEW OR NO CLOUDS BELOW 12,000 FEET WITH NO
SIGNIFICANT WEATHER AND/OR OBSTRUCTIONS TO VISIBILITY.

KSZ001>006-013>018-027>032-041>047-021600-
NORTHWEST KANSAS

CITY           SKY/WX    TMP DP  RH WIND       PRES   REMARKS
GOODLAND       CLOUDY    22  14  71 W7        30.19R
HAYS           SUNNY     23  18  81 SW5       30.24R
HILL CITY      SUNNY     23  15  71 W6        30.22R
RUSSELL        SUNNY     27  19  72 NW7       30.20R
$$

KSZ061>065-074>080-084>089-021600-
SOUTHWEST KANSAS

CITY           SKY/WX    TMP DP  RH WIND       PRES   REMARKS
DODGE CITY     SUNNY     33  16  49 N7        30.21R
ELKHART          N/A     26   6  42 NW6         N/A
GARDEN CITY    CLOUDY    23  10  57 N5        30.19S
GREAT BEND     SUNNY     26  18  71 W6        30.25R
LIBERAL        CLOUDY    27  12  54 N7        30.18S
$$

KSZ066>073-081>083-090>101-021600-
SOUTHEAST KANSAS

CITY           SKY/WX    TMP DP  RH WIND       PRES   REMARKS
CHANUTE        SUNNY     43  27  53 NE9       30.20F
COFFEYVILLE    MOSUNNY   40  30  67 E8        30.20R
HUTCHINSON     SUNNY     33  23  66 N3        30.24R
MEDICINE LODGE   N/A     32  22  66 N7        30.21R
NEWTON         SUNNY     36  25  64 E8        30.21R
PARSONS        SUNNY     44  28  53 VRB6      30.21R
WICHITA INTL   MOSUNNY   39  27  62 N3        30.21R
WICHITA JABRA  SUNNY     36  28  73 NE6       30.20R
WINFIELD       CLOUDY    40  27  59 NE10      30.19R WCI  33
$$

KSZ007>012-019>026-033>040-048>060-102>105-021600-
NORTHEAST KANSAS

CITY           SKY/WX    TMP DP  RH WIND       PRES   REMARKS
CONCORDIA      SUNNY     24  21  88 NW6       30.24R
EMPORIA        SUNNY     32  28  85 CALM      30.24R
LAWRENCE       SUNNY     26  24  92 CALM      30.28R FOG
MANHATTAN      SUNNY     25  22  88 NE3       30.25R
OLATHE IND     SUNNY     36  29  75 CALM      30.26R
OLATHE EXE     SUNNY     32  28  85 CALM      30.26R
SALINA         SUNNY     27  22  81 CALM      30.24R
TOPEKA BILLARD SUNNY     29  24  82 CALM      30.27R
TOPEKA FORBES  SUNNY     30  25  81 CALM      30.25R
$$



USA.gov is the U.S. government's official web portal to all federal, state and local government web resources and services.